Location: Debolt
(55.2626°N, 118.0981°W)
Time: 10:09:15
(UTC+00:00)

Oscar 11 - Pass Details

Date: 17 May 2025
Orbit: 595 x 604 km, 97.8° (Epoch: 19 June)

Event Time Altitude Azimuth Distance (km) Brightness Sun altitude
Rises 10:36:15 0° 23° (NNE) 2,855 12.3 -7.3°
Reaches altitude 10° 10:38:50 10° 39° (NE) 1,949 11.4 -7.0°
Maximum altitude 10:42:10 22° 91° (E) 1,315 9.3 -6.7°
Drops below altitude 10° 10:45:30 10° 144° (SE) 1,940 9.5 -6.4°
Sets 10:48:03 0° 159° (SSE) 2,839 10.2 -6.2°
